SAS405 ENBR-ENGM

Flight info

Callsign SAS405
Flight time 0h 35m
Altitude 31000
Route GOKAB DCT ULVAN DCT ADOPI
Aircraft A320/M-SDE2E3FGHIRWXY/S

Departure

Time 2026-05-06 17:07
Airport Bergen Airport, Flesland (ENBR)

Arrival

Time 2026-05-06 17:43
Airport Oslo-Gardermoen International Airport (ENGM)
Time Latitude Longitude Altitude Speed Heading
2026-05-06 16:33 60.28991 5.22625 162 ft 0 kts 178°
2026-05-06 16:56 60.28999 5.22625 162 ft 2 kts 178°
2026-05-06 16:57 60.29016 5.22624 162 ft 2 kts 178°
2026-05-06 16:57 60.29033 5.22623 162 ft 3 kts 191°
2026-05-06 16:57 60.29046 5.22631 163 ft 0 kts 219°
2026-05-06 17:01 60.29043 5.22615 163 ft 2 kts 254°
2026-05-06 17:01 60.29042 5.22535 163 ft 10 kts 265°
2026-05-06 17:02 60.29058 5.22359 163 ft 14 kts 309°
2026-05-06 17:02 60.29115 5.22225 163 ft 14 kts 332°
2026-05-06 17:02 60.29214 5.22189 164 ft 16 kts 352°
2026-05-06 17:02 60.29328 5.22150 165 ft 18 kts 350°
2026-05-06 17:03 60.29456 5.22101 166 ft 20 kts 350°
2026-05-06 17:03 60.29598 5.22051 168 ft 22 kts 351°
2026-05-06 17:03 60.29753 5.22001 169 ft 24 kts 349°
2026-05-06 17:03 60.29923 5.21940 170 ft 25 kts 351°
2026-05-06 17:04 60.30104 5.21886 172 ft 27 kts 352°
2026-05-06 17:04 60.30297 5.21826 174 ft 29 kts 351°
2026-05-06 17:04 60.30488 5.21764 175 ft 13 kts 347°
2026-05-06 17:04 60.30585 5.21721 176 ft 15 kts 347°
2026-05-06 17:05 60.30665 5.21593 177 ft 16 kts 288°
2026-05-06 17:05 60.30621 5.21398 179 ft 16 kts 208°
2026-05-06 17:05 60.30589 5.21398 178 ft 0 kts 176°
2026-05-06 17:06 60.30569 5.21401 177 ft 11 kts 175°
2026-05-06 17:06 60.30255 5.21509 172 ft 80 kts 170°
2026-05-06 17:06 60.29518 5.21756 166 ft 133 kts 170°
2026-05-06 17:07 60.28527 5.22097 449 ft 147 kts 171°
2026-05-06 17:07 60.27506 5.22439 1005 ft 150 kts 173°
2026-05-06 17:07 60.26485 5.22783 1587 ft 148 kts 174°
2026-05-06 17:07 60.25452 5.23124 1917 ft 156 kts 175°
2026-05-06 17:08 60.24298 5.23497 2054 ft 182 kts 174°
2026-05-06 17:08 60.22941 5.23935 2263 ft 209 kts 173°
2026-05-06 17:08 60.21410 5.24436 2641 ft 234 kts 173°
2026-05-06 17:08 60.19731 5.24991 3138 ft 256 kts 173°
2026-05-06 17:09 60.17940 5.25590 3960 ft 263 kts 173°
2026-05-06 17:09 60.16124 5.26204 4883 ft 266 kts 172°
2026-05-06 17:09 60.14280 5.26832 5789 ft 269 kts 172°
2026-05-06 17:09 60.12485 5.27880 6630 ft 276 kts 153°
2026-05-06 17:10 60.10973 5.30310 7428 ft 283 kts 128°
2026-05-06 17:10 60.10133 5.33882 8217 ft 287 kts 100°
2026-05-06 17:10 60.10194 5.37858 9025 ft 288 kts 73°
2026-05-06 17:10 60.10319 5.38731 9219 ft 288 kts 69°
2026-05-06 17:11 60.11008 5.41464 9817 ft 288 kts 51°
2026-05-06 17:11 60.12456 5.44213 10519 ft 288 kts 28°
2026-05-06 17:11 60.14358 5.45782 10743 ft 306 kts 13°
2026-05-06 17:11 60.16394 5.47564 10959 ft 331 kts 34°
2026-05-06 17:12 60.17962 5.50969 11772 ft 336 kts 57°
2026-05-06 17:12 60.18785 5.55344 12475 ft 344 kts 79°
2026-05-06 17:12 60.18894 5.60189 13156 ft 350 kts 88°
2026-05-06 17:12 60.19035 5.65107 13841 ft 354 kts 83°
2026-05-06 17:13 60.19311 5.70057 14384 ft 359 kts 81°
2026-05-06 17:13 60.19641 5.75102 14893 ft 366 kts 81°
2026-05-06 17:13 60.19970 5.80240 15365 ft 374 kts 81°
2026-05-06 17:13 60.20272 5.85431 15856 ft 381 kts 82°
2026-05-06 17:14 60.20556 5.90800 16362 ft 389 kts 83°
2026-05-06 17:14 60.20821 5.96260 16828 ft 396 kts 83°
2026-05-06 17:14 60.21077 6.01837 17310 ft 403 kts 84°
2026-05-06 17:14 60.21330 6.07520 17800 ft 410 kts 84°
2026-05-06 17:15 60.21582 6.13217 18290 ft 417 kts 84°
2026-05-06 17:15 60.21842 6.19084 18739 ft 423 kts 84°
2026-05-06 17:15 60.22106 6.25019 19317 ft 427 kts 84°
2026-05-06 17:15 60.22371 6.30990 19860 ft 431 kts 84°
2026-05-06 17:16 60.22638 6.37050 20382 ft 434 kts 84°
2026-05-06 17:16 60.22906 6.43147 20876 ft 439 kts 84°
2026-05-06 17:16 60.23172 6.49231 21381 ft 443 kts 85°
2026-05-06 17:16 60.23434 6.55466 21903 ft 447 kts 85°
2026-05-06 17:17 60.23692 6.61747 22418 ft 450 kts 85°
2026-05-06 17:17 60.23951 6.67980 22974 ft 454 kts 85°
2026-05-06 17:17 60.24220 6.74400 23321 ft 463 kts 83°
2026-05-06 17:17 60.24493 6.80933 23671 ft 471 kts 83°
2026-05-06 17:18 60.24762 6.87558 24068 ft 475 kts 84°
2026-05-06 17:18 60.25024 6.94147 24464 ft 478 kts 84°
2026-05-06 17:18 60.25290 7.00892 24899 ft 481 kts 84°
2026-05-06 17:18 60.25465 7.05363 25165 ft 483 kts 84°
2026-05-06 17:19 60.25728 7.12146 25556 ft 486 kts 84°
2026-05-06 17:19 60.25985 7.18962 25958 ft 489 kts 85°
2026-05-06 17:19 60.26235 7.25725 26486 ft 488 kts 85°
2026-05-06 17:19 60.26482 7.32551 26899 ft 488 kts 85°
2026-05-06 17:20 60.26724 7.39368 27001 ft 488 kts 85°
2026-05-06 17:20 60.26963 7.46180 27016 ft 487 kts 85°
2026-05-06 17:20 60.27200 7.53057 27016 ft 498 kts 85°
2026-05-06 17:20 60.27441 7.60131 27017 ft 510 kts 85°
2026-05-06 17:21 60.27727 7.67326 27022 ft 521 kts 84°
2026-05-06 17:21 60.28109 7.74588 27018 ft 529 kts 82°
2026-05-06 17:21 60.28572 7.81975 27017 ft 531 kts 81°
2026-05-06 17:21 60.29072 7.89363 27010 ft 532 kts 81°
2026-05-06 17:22 60.29575 7.96762 27012 ft 533 kts 81°
2026-05-06 17:22 60.30059 8.04181 27010 ft 533 kts 82°
2026-05-06 17:22 60.30513 8.11615 27005 ft 533 kts 82°
2026-05-06 17:22 60.30944 8.19058 26726 ft 533 kts 83°
2026-05-06 17:23 60.31365 8.26549 25308 ft 542 kts 83°
2026-05-06 17:23 60.31774 8.34062 24070 ft 547 kts 83°
2026-05-06 17:23 60.32186 8.41687 23101 ft 543 kts 83°
2026-05-06 17:23 60.32596 8.49241 22269 ft 533 kts 83°
2026-05-06 17:24 60.33000 8.56617 21496 ft 523 kts 83°
2026-05-06 17:24 60.33393 8.63770 20752 ft 513 kts 83°
2026-05-06 17:24 60.33782 8.70901 20039 ft 504 kts 83°
2026-05-06 17:24 60.34160 8.77915 19320 ft 495 kts 83°
2026-05-06 17:25 60.34520 8.84695 18810 ft 483 kts 83°
2026-05-06 17:25 60.34868 8.91353 18314 ft 471 kts 83°
2026-05-06 17:25 60.35206 8.97856 17656 ft 462 kts 83°
2026-05-06 17:25 60.35537 9.04288 17000 ft 455 kts 83°
2026-05-06 17:26 60.35856 9.10550 16383 ft 447 kts 83°
2026-05-06 17:26 60.36170 9.16767 15805 ft 441 kts 83°
2026-05-06 17:26 60.36478 9.22906 15244 ft 434 kts 83°
2026-05-06 17:26 60.36774 9.28868 14731 ft 427 kts 84°
2026-05-06 17:27 60.37078 9.34809 14222 ft 421 kts 83°
2026-05-06 17:27 60.37410 9.40604 14017 ft 406 kts 82°
2026-05-06 17:27 60.37753 9.46199 13761 ft 393 kts 82°
2026-05-06 17:27 60.38095 9.51629 13214 ft 386 kts 82°
2026-05-06 17:28 60.38430 9.56924 12637 ft 381 kts 82°
2026-05-06 17:28 60.38762 9.62245 12022 ft 377 kts 82°
2026-05-06 17:28 60.39081 9.67475 11483 ft 372 kts 83°
2026-05-06 17:28 60.39390 9.72667 10919 ft 368 kts 83°
2026-05-06 17:29 60.39683 9.77703 10608 ft 358 kts 83°
2026-05-06 17:29 60.39965 9.82617 10470 ft 343 kts 83°
2026-05-06 17:29 60.40233 9.87333 10337 ft 330 kts 83°
2026-05-06 17:29 60.40489 9.91883 10218 ft 319 kts 83°
2026-05-06 17:30 60.40735 9.96271 10166 ft 306 kts 83°
2026-05-06 17:30 60.40970 10.00441 10104 ft 299 kts 83°
2026-05-06 17:30 60.41206 10.04633 9966 ft 298 kts 83°
2026-05-06 17:30 60.41440 10.08803 9911 ft 297 kts 83°
2026-05-06 17:31 60.41670 10.12912 9824 ft 296 kts 83°
2026-05-06 17:31 60.41902 10.17065 9685 ft 295 kts 84°
2026-05-06 17:31 60.42129 10.21191 9542 ft 294 kts 84°
2026-05-06 17:31 60.42353 10.25321 9402 ft 294 kts 84°
2026-05-06 17:32 60.42569 10.29382 9264 ft 293 kts 84°
2026-05-06 17:32 60.42790 10.33493 9126 ft 293 kts 84°
2026-05-06 17:32 60.43013 10.37596 8987 ft 292 kts 84°
2026-05-06 17:32 60.43233 10.41649 8848 ft 291 kts 84°
2026-05-06 17:33 60.43450 10.45735 8709 ft 291 kts 84°
2026-05-06 17:33 60.43665 10.49808 8573 ft 290 kts 84°
2026-05-06 17:33 60.43876 10.53884 8433 ft 290 kts 84°
2026-05-06 17:33 60.44087 10.57933 8307 ft 289 kts 84°
2026-05-06 17:34 60.44297 10.61996 8167 ft 288 kts 84°
2026-05-06 17:34 60.44502 10.65980 8032 ft 288 kts 84°
2026-05-06 17:34 60.44708 10.70014 7902 ft 287 kts 84°
2026-05-06 17:34 60.44914 10.74045 7767 ft 286 kts 84°
2026-05-06 17:35 60.45118 10.78069 7637 ft 286 kts 84°
2026-05-06 17:35 60.45319 10.82070 7504 ft 285 kts 84°
2026-05-06 17:35 60.45519 10.86078 7370 ft 285 kts 84°
2026-05-06 17:36 60.45914 10.94101 6690 ft 285 kts 83°
2026-05-06 17:36 60.46106 10.98050 6555 ft 276 kts 84°
2026-05-06 17:36 60.46291 11.01884 6421 ft 268 kts 83°
2026-05-06 17:36 60.46359 11.05543 6292 ft 259 kts 97°
2026-05-06 17:37 60.45889 11.08960 6051 ft 247 kts 117°
2026-05-06 17:37 60.44929 11.11787 5465 ft 255 kts 136°
2026-05-06 17:37 60.43658 11.14307 5223 ft 251 kts 137°
2026-05-06 17:37 60.42422 11.16683 4912 ft 245 kts 142°
2026-05-06 17:38 60.41007 11.18376 4678 ft 229 kts 163°
2026-05-06 17:38 60.39504 11.19019 4436 ft 214 kts 181°
2026-05-06 17:38 60.38078 11.18735 4213 ft 197 kts 198°
2026-05-06 17:38 60.36794 11.17999 3932 ft 186 kts 199°
2026-05-06 17:39 60.35589 11.17292 3670 ft 177 kts 200°
2026-05-06 17:39 60.34425 11.16611 3437 ft 172 kts 200°
2026-05-06 17:39 60.33275 11.15940 3193 ft 170 kts 200°
2026-05-06 17:39 60.32144 11.15281 2958 ft 169 kts 199°
2026-05-06 17:40 60.31030 11.14633 2723 ft 166 kts 200°
2026-05-06 17:40 60.29941 11.14000 2494 ft 162 kts 199°
2026-05-06 17:40 60.28847 11.13364 2292 ft 164 kts 199°
2026-05-06 17:40 60.27762 11.12734 2053 ft 164 kts 200°
2026-05-06 17:41 60.26688 11.12112 1805 ft 152 kts 199°
2026-05-06 17:41 60.25736 11.11567 1578 ft 141 kts 199°
2026-05-06 17:41 60.24762 11.10986 1405 ft 146 kts 199°
2026-05-06 17:41 60.23792 11.10422 1176 ft 145 kts 199°
2026-05-06 17:42 60.22831 11.09871 978 ft 143 kts 200°
2026-05-06 17:42 60.21875 11.09314 789 ft 143 kts 199°
2026-05-06 17:42 60.20939 11.08760 677 ft 126 kts 197°
2026-05-06 17:42 60.20256 11.08378 677 ft 77 kts 195°
2026-05-06 17:43 60.19862 11.08159 673 ft 47 kts 193°
2026-05-06 17:43 60.19639 11.08129 672 ft 26 kts 165°
2026-05-06 17:43 60.19576 11.08264 671 ft 0 kts 105°
2026-05-06 17:44 60.19571 11.08300 673 ft 6 kts 105°
2026-05-06 17:45 60.19552 11.08434 673 ft 13 kts 103°
2026-05-06 17:45 60.19620 11.08583 674 ft 19 kts 22°
2026-05-06 17:45 60.19748 11.08664 674 ft 16 kts 30°
2026-05-06 17:45 60.19759 11.08865 675 ft 16 kts 105°
2026-05-06 17:46 60.19729 11.09082 676 ft 17 kts 106°
2026-05-06 17:46 60.19692 11.09324 675 ft 19 kts 108°
2026-05-06 17:46 60.19652 11.09598 678 ft 21 kts 105°
2026-05-06 17:46 60.19583 11.09792 679 ft 8 kts 140°
2026-05-06 17:47 60.19535 11.09812 679 ft 0 kts 181°
2026-05-06 17:47 60.19527 11.09811 679 ft 0 kts 184°